Location: Unspecified
(46.6630°N, 0.0000°E)
Time: 05:16:59
(UTC+00:00)

CZ-2D DEB - Visible Passes

Search period start: 04 April 2026 00:00
Search period end: 14 April 2026 00:00
Orbit: 768 x 1059 km, 98.7° (Epoch: 28 March)

Date Brightness Start Highest point End Pass type
(mag) Time Alt. Az. Time Alt. Az. Time Alt. Az.
4 Apr ? 21:21:23 23° ENE 21:21:23 23° ENE 21:25:24 10° N visible
4 Apr ? 23:04:42 42° NW 23:04:42 42° NW 23:08:22 10° NNW visible
5 Apr ? 21:27:57 25° ENE 21:27:57 25° ENE 21:32:04 10° N visible
5 Apr ? 23:11:17 39° NW 23:11:17 39° NW 23:14:52 10° NNW visible
6 Apr ? 21:34:31 27° NE 21:34:31 27° NE 21:38:44 10° N visible
6 Apr ? 23:17:50 37° NW 23:17:50 37° NW 23:21:21 10° NNW visible
7 Apr ? 21:41:05 30° NE 21:41:05 30° NE 21:45:23 10° N visible
7 Apr ? 23:24:24 34° NW 23:24:24 34° NW 23:27:49 10° NNW visible
8 Apr ? 21:47:39 33° NE 21:47:39 33° NE 21:52:00 10° N visible
8 Apr ? 23:30:58 31° NW 23:30:58 31° NW 23:34:17 10° NNW visible
9 Apr ? 21:54:12 36° NE 21:54:12 36° NE 21:58:37 10° N visible
9 Apr ? 23:37:32 29° WNW 23:37:32 29° WNW 23:40:43 10° NNW visible
10 Apr ? 22:00:46 40° NE 22:00:46 40° NE 22:05:13 10° N visible
10 Apr ? 23:44:05 26° WNW 23:44:05 26° WNW 23:47:08 10° NNW visible
11 Apr ? 22:07:19 45° NE 22:07:19 45° NE 22:11:49 10° N visible
11 Apr ? 23:50:39 24° WNW 23:50:39 24° WNW 23:53:30 10° NW visible
12 Apr ? 22:13:53 49° NE 22:13:53 49° NE 22:18:24 10° N visible
12 Apr ? 23:57:12 21° WNW 23:57:12 21° WNW 23:59:52 10° NW visible
13 Apr ? 20:37:59 10° ENE 20:38:41 10° NE 20:39:23 10° NE visible
13 Apr ? 22:20:26 54° NE 22:20:26 54° NE 22:24:57 10° N visible
